Regional Weather Roundup
Issued by NWS

Home | Current Version | Previous Version | Graphics & Text | Print | Product List | Glossary Off
Versions: 1 2 3 4 5 6 7 8 9 10 11 12 13 14 15 16 17 18 19 20 21 22 23 24 25 26 27 28 29 30 31 32 33 34 35 36 37 38 39 40 41 42 43 44 45 46 47 48 49 50

000
ASUS43 KFSD 170102
RWRSD

WEATHER ROUNDUP FOR SOUTH DAKOTA
NATIONAL WEATHER SERVICE SIOUX FALLS SD
800 PM CDT MON OCT 16 2017

NOTE: "FAIR" INDICATES FEW OR NO CLOUDS BELOW 12,000 FEET WITH NO
SIGNIFICANT WEATHER AND/OR OBSTRUCTIONS TO VISIBILITY.


SDZ001>005-009-010-012>017-170200-
NORTHWEST AND NORTH CENTRAL SOUTH DAKOTA

CITY           SKY/WX    TMP DP  RH WIND       PRES   REMARKS
BUFFALO          N/A     56  27  32 NW9       29.99S
FAITH            N/A     61  30  31 NW6       30.04R
MOBRIDGE       CLEAR     54  36  50 W6        29.96R
$$

SDZ012>016-024>037-041>051-057-063-072>074-170200-
SOUTHWEST AND SOUTH CENTRAL SOUTH DAKOTA

CITY           SKY/WX    TMP DP  RH WIND       PRES   REMARKS
RAPID CTY ARPT CLEAR     57  28  33 SW10      30.08R
PIERRE         CLOUDY    58  38  47 SW3       29.99R
CUSTER         CLEAR     53  21  28 CALM      30.19S
ELLSWORTH AFB  CLEAR     56  28  33 W8        30.08R
PHILIP         CLEAR     54  36  50 W5        30.04R
PINE RIDGE     CLEAR     48  32  53 CALM      30.11S
SPEARFISH      FAIR      52  30  43 SW7       30.11S
WINNER         FAIR      69  34  27 CALM      30.04R
$$

SDZ004>011-016>023-039-040-170200-
NORTHEAST SOUTH DAKOTA

CITY           SKY/WX    TMP DP  RH WIND       PRES   REMARKS
ABERDEEN       CLEAR     52  41  66 SW5       29.94S
WATERTOWN      CLEAR     50  42  74 SW8       29.97S
BROOKINGS      CLOUDY    54  40  59 SW6       29.99S
SISSETON         N/A     60  43  53 SW12      29.92R
$$

SDZ017-020-022-023-036>040-048>070-170200-
SOUTHEAST SOUTH DAKOTA

CITY           SKY/WX    TMP DP  RH WIND       PRES   REMARKS
SIOUX FALLS    PTCLDY    63  41  44 SW3       30.01R
HURON          CLOUDY    55  42  61 S5        29.99R
CHAMBERLAIN    CLEAR     55  42  61 CALM      30.02S
MITCHELL       CLOUDY    59  41  51 CALM      30.01R
YANKTON        CLEAR     64  39  39 S5        30.02R
$$

ABBREVIATIONS USED IN REMARKS
   TC - TEMPERATURE IN CELSIUS
  WCI - WIND CHILL INDEX
   HX - HEAT INDEX
  VSB - VISIBILITY





USA.gov is the U.S. government's official web portal to all federal, state and local government web resources and services.